[[{"header":{"parameterUnit":"m.s-1","parameterCategory":1,"la1":30.2992,"la2":30.254,"lo1":-89.0895,"lo2":-89.0443,"dy":0.0025,"dx":0.0025,"nx":19,"ny":19,"refTime":"2026-05-06T09:00:00:Z","depth":0,"parameterNumber":2,"parameterNumberName":"U-component_of_WINDS"},"data":[0,0,0,1.8307,1.8311,1.8498,1.8499,1.8743,1.8745,0,0,0,0,0,0,0,0,0,0,0,1.8252,1.8253,1.8307,1.8312,1.8498,1.8499,1.8742,1.8745,0,0,0,0,0,0,0,0,0,0,0,1.8251,1.8253,1.8255,1.8312,1.8498,1.8499,1.8742,1.86,0,0,0,0,0,0,0,0,0,0,1.8418,1.8365,1.8252,1.8255,1.8313,1.8498,1.8499,1.8593,1.8609,1.8659,0,1.87,0,1.8726,1.8761,1.8762,0,0,0,1.8313,1.8352,1.8403,1.8255,1.8315,1.8497,1.8414,1.8602,1.862,1.868,1.8704,1.8713,1.873,1.8763,1.8764,1.9041,1.9042,0,0,1.8303,1.8286,1.839,1.8414,1.8381,1.8408,1.842,1.8613,1.8639,1.8705,1.8719,1.8734,1.8765,1.8766,1.904,1.9041,0,0,0,1.8272,1.8278,1.8324,1.8404,1.8437,1.8414,1.8427,1.8631,1.8647,1.8721,1.8737,1.8766,1.8769,1.9039,1.9041,1.9083,0,0,0,1.8266,1.8261,1.832,1.8311,1.8433,1.8535,1.8441,1.8633,1.8656,1.8736,1.8766,1.8771,1.9037,1.904,1.9079,1.9107,0,0,0,1.824,1.8257,1.8284,1.831,1.8389,1.8532,1.856,1.8638,1.8665,1.8762,1.8772,1.9036,1.9039,1.9076,1.9101,1.9176,0,0,0,1.8207,1.8321,1.8284,1.8417,1.8387,1.8556,1.8559,1.8686,1.8775,1.8767,1.9038,1.904,1.9075,1.9098,1.9172,1.9235,1.926,0,0,1.8341,1.8336,1.8416,1.8389,1.8559,1.8529,1.8708,1.8807,1.8834,1.8972,1.8979,1.9081,1.9101,1.9175,1.9401,1.942,0,0,0,1.8452,1.851,1.8559,1.864,1.8716,1.8785,1.8857,1.8894,1.9011,1.8899,1.9128,1.914,1.9185,1.9216,1.9232,1.9272,1.9054,1.9053,1.9053,1.8618,1.8643,1.8778,1.8826,1.8905,1.8979,1.9047,1.911,1.9114,1.9168,1.9209,1.9343,1.9379,1.9391,1.9432,1.9244,1.9244,1.9244,1.9245,1.8817,1.8902,1.8904,1.9034,1.9062,1.9174,1.925,1.9249,1.936,1.9314,1.9354,1.9302,1.9411,1.9449,1.9248,1.9247,1.9247,1.9247,1.9246,1.8929,1.8974,1.9015,1.9135,1.9227,1.9273,1.9378,1.94,1.9423,1.9462,1.951,1.9509,1.9512,1.9483,1.9483,1.9484,1.9484,1.9484,1.9485,1.9029,1.9073,1.9157,1.9247,1.9303,1.9379,1.9455,1.9512,1.9581,1.9589,1.959,1.959,1.9416,1.9372,1.9492,1.9491,1.949,1.9489,1.9489,1.9223,1.9182,1.9312,1.9367,1.9476,1.9566,1.9592,1.9706,1.9757,1.9808,1.98,1.9667,1.9665,1.9653,1.9617,1.9793,1.9793,1.9793,1.9793,1.9318,1.9318,1.9456,1.9543,1.9632,1.9669,1.9819,1.9879,1.9937,1.997,1.9948,1.9902,1.9888,1.9895,1.9877,1.9844,2.0073,2.0074,2.0074,1.9439,1.9449,1.957,1.9622,1.9709,1.9784,1.9926,2.003,2.0087,2.0086,1.9998,1.9986,1.9912,1.9886,1.9884,1.9856,1.9796,0,0]},{"header":{"parameterUnit":"m.s-1","parameterCategory":1,"la1":30.2992,"la2":30.254,"lo1":-89.0895,"lo2":-89.0443,"dy":0.0025,"dx":0.0025,"nx":19,"ny":19,"refTime":"2026-05-06T09:00:00:Z","depth":0,"parameterNumber":3,"parameterNumberName":"V-component_of_WINDS"},"data":[0,0,0,0.8165,0.8169,0.841,0.8411,0.8718,0.872,0,0,0,0,0,0,0,0,0,0,0,0.809,0.8092,0.8164,0.817,0.841,0.8411,0.8717,0.872,0,0,0,0,0,0,0,0,0,0,0,0.809,0.8092,0.8094,0.8171,0.841,0.8411,0.8716,0.8536,0,0,0,0,0,0,0,0,0,0,0.8303,0.8232,0.8091,0.8094,0.8172,0.8409,0.8411,0.8527,0.8547,0.8607,0,0.8658,0,0.8693,0.874,0.8742,0,0,0,0.8173,0.8215,0.8282,0.8095,0.8174,0.8409,0.8303,0.8539,0.8561,0.8634,0.8662,0.8674,0.8699,0.8742,0.8744,0.9072,0.9073,0,0,0.816,0.8133,0.8266,0.8296,0.8256,0.8295,0.831,0.8552,0.8583,0.8663,0.8681,0.8704,0.8744,0.8747,0.907,0.9072,0,0,0,0.812,0.8124,0.8185,0.8283,0.8326,0.8302,0.8319,0.8572,0.8594,0.8684,0.8707,0.8746,0.875,0.9069,0.9071,0.9111,0,0,0,0.8112,0.81,0.8179,0.8165,0.8322,0.8452,0.8333,0.8577,0.8605,0.8706,0.8746,0.8753,0.9067,0.907,0.9107,0.9136,0,0,0,0.8076,0.8096,0.8129,0.8163,0.8265,0.8448,0.8484,0.8584,0.8619,0.8742,0.8754,0.9066,0.9069,0.9103,0.913,0.9213,0,0,0,0.8031,0.8165,0.813,0.8288,0.8263,0.847,0.8483,0.864,0.875,0.8748,0.9068,0.9071,0.9102,0.9126,0.9209,0.9279,0.9305,0,0,0.8185,0.8183,0.8278,0.8253,0.846,0.8436,0.865,0.8778,0.8816,0.8985,0.8993,0.9108,0.9129,0.9212,0.9461,0.9482,0,0,0,0.8318,0.8386,0.8447,0.8548,0.8645,0.8732,0.8829,0.8876,0.902,0.8896,0.9162,0.9175,0.9225,0.926,0.9278,0.9322,0.9085,0.9085,0.9085,0.8501,0.8538,0.8698,0.8763,0.8861,0.8957,0.9041,0.9121,0.9134,0.9196,0.9247,0.9392,0.9432,0.9445,0.9491,0.9286,0.9286,0.9286,0.9287,0.873,0.8833,0.8841,0.8999,0.9038,0.9173,0.927,0.9274,0.9406,0.9358,0.9404,0.935,0.9467,0.9509,0.929,0.9289,0.9289,0.9289,0.9288,0.8855,0.891,0.8961,0.9109,0.9219,0.9281,0.9406,0.9438,0.947,0.9515,0.9572,0.9571,0.9575,0.9539,0.954,0.954,0.9541,0.9541,0.9541,0.8963,0.902,0.9119,0.9231,0.9298,0.9392,0.9487,0.9556,0.964,0.9654,0.9655,0.9661,0.947,0.9422,0.955,0.9548,0.9547,0.9546,0.9546,0.9184,0.9138,0.9292,0.9359,0.9491,0.9598,0.9635,0.9771,0.9832,0.9892,0.9888,0.9741,0.9742,0.9729,0.9689,0.9878,0.9878,0.9878,0.9878,0.9289,0.9291,0.9453,0.9558,0.9665,0.9713,0.9886,0.9961,1.0032,1.0073,1.005,0.9999,0.9984,0.9994,0.9975,0.9939,1.0187,1.0187,1.0188,0.9427,0.944,0.958,0.9645,0.9751,0.9841,1.0004,1.0126,1.0198,1.0201,1.0105,1.0092,1.0011,0.9983,0.9986,0.9955,0.9889,0,0]}]]